TimeCST,TemperatureF,Dew PointF,Humidity,Sea Level PressureIn,VisibilityMPH,Wind Direction,Wind SpeedMPH,Gust SpeedMPH,PrecipitationIn,Events,Conditions,WindDirDegrees,DateUTC
12:00 AM,2,-3,69,30.24,15,North,3.5,,,,Partly Cloudy,10,2013-11-06 06:00:00
12:00 AM,3.2,-2.2,78,30.24,15.0,North,3.5,-,N/A,,Mostly Cloudy,10,2013-11-06 06:00:00
1:00 AM,6.8,-0.4,72,30.24,15.0,North,2.3,-,N/A,,Overcast,360,2013-11-06 07:00:00
2:00 AM,6.8,1.4,79,30.24,15.0,Calm,Calm,-,N/A,Snow,Light Snow,0,2013-11-06 08:00:00
3:00 AM,8.6,3.2,79,30.24,15.0,Calm,Calm,-,N/A,,Overcast,0,2013-11-06 09:00:00
4:00 AM,10.4,6.8,85,30.23,15.0,Calm,Calm,-,N/A,,Overcast,0,2013-11-06 10:00:00
5:00 AM,10.4,6.8,85,30.24,15.0,Calm,Calm,-,N/A,,Overcast,0,2013-11-06 11:00:00
6:00 AM,14,10,78,30.24,1,South,4.6,,,,Mist,190,2013-11-06 12:00:00
6:00 AM,14.0,10.4,86,30.24,1.5,South,4.6,-,N/A,,Mist,190,2013-11-06 12:00:00
6:22 AM,-9999,-9999,N/A,-9999,1.0,South,3.5,-,N/A,,Mist,190,2013-11-06 12:22:00
7:00 AM,12.2,8.6,85,30.24,7.0,South,4.6,-,N/A,Fog,Overcast,190,2013-11-06 13:00:00
7:12 AM,-9999,-9999,N/A,-9999,15.0,South,3.5,-,N/A,,Overcast,180,2013-11-06 13:12:00
8:00 AM,12.2,8.6,85,30.24,1.0,South,3.5,-,N/A,,Mist,180,2013-11-06 14:00:00
8:22 AM,-9999,-9999,N/A,-9999,0.5,SSE,3.5,-,N/A,Fog,Fog,160,2013-11-06 14:22:00
9:00 AM,12.2,8.6,85,30.24,0.5,SSE,3.5,-,N/A,Fog,Light Freezing Fog,150,2013-11-06 15:00:00
10:00 AM,12.2,10.4,92,30.24,1.2,Calm,Calm,-,N/A,,Overcast,0,2013-11-06 16:00:00
11:00 AM,12.2,10.4,92,30.23,11.0,SSE,2.3,-,N/A,Fog,Overcast,160,2013-11-06 17:00:00
12:00 PM,13,11,88,30.23,15,South,2.3,,,,Overcast,170,2013-11-06 18:00:00
12:00 PM,14.0,10.4,86,30.23,15.0,South,2.3,-,N/A,,Overcast,170,2013-11-06 18:00:00
1:00 PM,15.8,12.2,86,30.22,15.0,South,2.3,-,N/A,,Overcast,170,2013-11-06 19:00:00
2:00 PM,15.8,14.0,93,30.21,15.0,Calm,Calm,-,N/A,,Mostly Cloudy,0,2013-11-06 20:00:00
3:00 PM,15.8,14.0,93,30.20,15.0,Calm,Calm,-,N/A,Snow,Light Snow,0,2013-11-06 21:00:00
4:00 PM,17.6,15.8,93,30.19,15.0,SSE,2.3,-,N/A,,Mostly Cloudy,160,2013-11-06 22:00:00
5:00 PM,17.6,15.8,93,30.18,15.0,South,5.8,-,N/A,,Mostly Cloudy,180,2013-11-06 23:00:00
6:00 PM,15,13,89,30.17,15,SSW,3.5,,,,Partly Cloudy,200,2013-11-07 00:00:00
6:00 PM,15.8,14.0,93,30.17,15.0,SSW,3.5,-,N/A,,Overcast,200,2013-11-07 00:00:00
7:00 PM,14.0,10.4,86,30.16,15.0,SSE,3.5,-,N/A,,Overcast,150,2013-11-07 01:00:00
8:00 PM,12.2,8.6,85,30.15,15.0,SSE,3.5,-,N/A,Snow,Light Snow,150,2013-11-07 02:00:00
9:00 PM,12.2,8.6,85,30.13,13.0,SSE,3.5,-,N/A,Snow,Light Snow,150,2013-11-07 03:00:00
10:00 PM,12.2,10.4,92,30.11,10.0,SE,2.3,-,N/A,Snow,Light Snow,140,2013-11-07 04:00:00
11:00 PM,12.2,10.4,92,30.09,6.0,SE,2.3,-,N/A,Snow,Light Snow,140,2013-11-07 05:00:00